Location: Ajisawe
(8.4333°N, 4.3833°E)
Time: 23:31:20
(UTC+00:00)

Vanguard 1 Rocket - Pass Details

Date: 28 April 2021
Orbit: 652 x 4224 km, 34.3° (Epoch: 10 May)

Event Time Altitude Azimuth Distance (km) Brightness Sun altitude
Rises 20:06:30 0° 270° (W) 3,576 11.4 -32.4°
Reaches altitude 10° 20:09:16 10° 254° (WSW) 2,940 10.5 -33.0°
Maximum altitude 20:14:48 23° 204° (SSW) 2,769 9.8 -34.2°
Enters shadow 20:16:28 22° 190° (S) 3,022 9.8 -34.6°
